"2022-10-18 00:01:00",3161925,2.023334,174.8,0.747574,0.08395763,2.11,0,1.098667,159.3997,2.026364,0.07957109,1.21,0,-999,0,13.3,99,13.38,13.37,0.2,0,0,13.9,13.25,0.2,102.658,3.435,3.436,3.435,100,0,0,0,355.6,118,118
"2022-10-18 00:02:00",3161926,2.079333,175,0.8159146,0.0505261,2.15,0,1.226,158.6667,1.074975,0.03929375,1.28,0,-999,0,13.34,98.9,13.41,13.4,0.2,0,0,13.9,13.23,0.2,102.6535,3.432,3.435,3.432,100,0,0,0,355.6,118,118
"2022-10-18 00:03:00",3161927,2.002,177.2001,1.6002,0.02315165,2.04,0,1.050667,164.8632,4.483673,0.0911019,1.19,0,-999,0,13.4,99.1,13.48,13.44,0.2,0,0,13.9,13.23,0.2,102.658,3.429,3.432,3.429,100,0,0,0,355.6,118,118
"2022-10-18 00:04:00",3161928,1.934,180.8667,0.7183387,0.04332821,2.03,0,0.8186667,172.8667,3.323541,0.08261289,0.97,0,-999,0,13.4,99.1,13.49,13.44,0.2,0,0,13.9,13.21,0.2,102.6589,3.428,3.43,3.428,100,0,0,0,355.6,118,118
"2022-10-18 00:05:00",3161929,1.854,182,0.7307626,0.03479463,1.92,0,0.8699999,176.5335,1.783672,0.07615773,0.99,0,-999,0,13.4,99,13.48,13.43,0.2,0,0,13.9,13.23,0.2,102.6602,3.426,3.428,3.426,100,0,0,0,355.6,118,118
"2022-10-18 00:06:00",3161930,1.737333,183.4,0.9519635,0.03604932,1.8,0,0.8966667,174.2681,3.529557,0.052111,0.98,0,-999,0,13.4,99,13.46,13.41,0.2,0,0,13.9,13.24,0.2,102.6577,3.425,3.426,3.425,100,0,0,0,355.6,118,118
"2022-10-18 00:07:00",3161931,1.765333,183.7333,0.7714081,0.01309791,1.8,0,0.84,172.6667,2.054868,0.06250333,0.96,0,-999,0,13.4,99,13.47,13.41,0.2,0,0,13.9,13.23,0.2,102.6603,3.423,3.425,3.423,100,0,0,0,355.6,118,118
"2022-10-18 00:08:00",3161932,1.792,183,0.7299588,0.04118252,1.86,0,0.864,169.7999,1.10744,0.0233238,0.9,0,-999,0,13.39,99,13.44,13.39,0.2,0,0,13.9,13.23,0.2,102.6634,3.423,3.423,3.423,100,0,0,0,355.6,118,118
"2022-10-18 00:09:00",3161933,1.934667,183.9333,0.5726733,0.04271873,1.99,0,1.019333,168.1326,2.445392,0.09664137,1.16,0,-999,0,13.4,98.8,13.45,13.4,0.2,0,0,13.9,13.23,0.2,102.662,3.421,3.423,3.421,100,0,0,0,355.6,118,118
"2022-10-18 00:10:00",3161934,1.946667,184.3333,1.192292,0.04935134,1.99,0,1.188667,168.9333,2.542071,0.0380993,1.25,0,-999,0,13.45,99.1,13.53,13.49,0.2,0,0,13.9,13.21,0.2,102.6611,3.419,3.421,3.419,100,0,0,0,355.6,118,118
"2022-10-18 00:11:00",3161935,1.74,184.6667,1.134934,0.0417931,1.83,0,1.127333,174.6667,1.010697,0.0418675,1.19,0,-999,0,13.57,99.2,13.63,13.59,0.2,0,0,13.9,13.23,0.2,102.6613,3.418,3.42,3.418,100,0,0,0,355.6,118,118
"2022-10-18 00:12:00",3161936,1.758667,184,0.8159146,0.03757064,1.81,0,0.9293333,174.8668,1.820828,0.05790414,1.07,0,-999,0,13.6,99.2,13.66,13.61,0.2,0,0,13.91,13.24,0.2,102.6576,3.417,3.418,3.417,100,0,0,0,355.6,118,118
"2022-10-18 00:13:00",3161937,1.722,181.6,0.7121828,0.06188158,1.81,0,0.7246667,170.3999,1.356411,0.07614606,0.87,0,-999,0,13.6,99.4,13.67,13.66,0.2,0,0,13.92,13.21,0.2,102.6611,3.414,3.417,3.414,100,0,0,0,355.6,118,118
"2022-10-18 00:14:00",3161938,1.634667,179.4,0.711633,0.04014418,1.69,0,0.5933333,167.0671,2.264198,0.03418903,0.66,0,-999,0,13.6,99.1,13.66,13.62,0.2,0,0,13.92,13.24,0.2,102.6595,3.413,3.414,3.413,100,0,0,0,355.6,118,118
"2022-10-18 00:15:00",3161939,1.489334,176.7334,1.339785,0.04449217,1.55,0,0.5253333,161.6685,4.712998,0.05560176,0.6,0,-999,0,13.53,99.2,13.63,13.57,0.2,0,0,13.92,13.23,0.2,102.6532,3.413,3.413,3.413,100,0,0,0,355.6,118,118
"2022-10-18 00:16:00",3161940,1.248,168.1341,3.283227,0.1255495,1.43,0,0.308,104.1443,54.9038,0.1067833,0.48,0,-999,0,13.47,99.3,13.57,13.52,0.2,0,0,13.92,13.24,0.2,102.6575,3.412,3.413,3.412,100,0,0,0,355.6,118,118
"2022-10-18 00:17:00",3161941,0.798,155.5986,3.361975,0.1115467,1.04,0,0.5446666,11.26641,5.660155,0.06075817,0.62,0,-999,0,13.4,98.8,13.51,13.46,0.2,0,0,13.92,13.24,0.2,102.6583,3.412,3.412,3.412,100,0,0,0,355.6,118,118
"2022-10-18 00:18:00",3161942,0.6013333,137.5321,11.48042,0.1134823,0.79,0,0.5193333,14.26159,5.050693,0.03855155,0.59,0,-999,0,13.25,97.7,13.32,13.26,0.2,0,0,13.92,13.25,0.2,102.6569,3.411,3.412,3.411,100,0,0,0,355.6,118,118
"2022-10-18 00:19:00",3161943,0.4999999,131.3375,15.668,0.08710147,0.62,0,0.5473334,30.80559,6.292996,0.04265625,0.63,0,-999,0,13.07,97,13.16,13.09,0.2,0,0,13.92,13.23,0.2,102.6581,3.409,3.411,3.409,100,0,0,0,355.6,118,118
"2022-10-18 00:20:00",3161944,0.408,115.2684,13.60102,0.07547186,0.54,0,0.612,38.59834,5.594508,0.05564171,0.69,0,-999,0,12.95,97.4,13.09,13.03,0.2,0,0,13.93,13.23,0.2,102.6582,3.408,3.41,3.408,100,0,0,0,355.6,118,118
"2022-10-18 00:21:00",3161945,0.496,136.3305,13.702,0.1156316,0.66,0,0.5986666,41.26587,3.213556,0.07957108,0.76,0,-999,0,13,98.3,13.14,13.09,0.2,0,0,13.94,13.24,0.2,102.6608,3.408,3.409,3.408,100,0,0,0,355.6,118,118
"2022-10-18 00:22:00",3161946,0.7653334,144.7997,4.133502,0.09985767,1.03,0,0.5266667,53.04,8.912063,0.07096164,0.62,0,-999,0,13.07,99.1,13.23,13.18,0.2,0,0,13.94,13.21,0.2,102.6607,3.408,3.408,3.408,100,0,0,0,355.6,118,118
"2022-10-18 00:23:00",3161947,0.9853333,143.3959,3.960813,0.1029477,1.24,0,0.5446666,76.66755,7.078705,0.04455209,0.62,0,-999,0,13.14,99.7,13.31,13.27,0.2,0,0,13.94,13.24,0.2,102.6622,3.408,3.408,3.408,100,0,0,0,355.6,118,118
"2022-10-18 00:24:00",3161948,1.202667,148.667,2.1806,0.07469644,1.31,0,0.5613334,100.9502,7.562481,0.03242769,0.62,0,-999,0,13.2,100,13.38,13.3,0.2,0,0,13.94,13.24,0.2,102.6603,3.407,3.408,3.407,100,0,0,0,355.6,118,118
"2022-10-18 00:25:00",3161949,1.172,151.1952,4.845179,0.06134058,1.31,0,0.4973333,118.5964,8.067677,0.07288957,0.6,0,-999,0,13.29,100,13.46,13.38,0.2,0,0,13.94,13.22,0.2,102.6604,3.406,3.407,3.406,100,0,0,0,355.6,118,118
"2022-10-18 00:26:00",3161950,1.171333,162.528,5.028064,0.07437442,1.34,0,0.4006667,122.7999,2.612212,0.0152607,0.42,0,-999,0,13.3,99.3,13.5,13.43,0.2,0,0,13.94,13.25,0.2,102.6638,3.406,3.406,3.406,100,0,0,0,355.6,118,118
"2022-10-18 00:27:00",3161951,1.096667,165.0667,2.743715,0.06589555,1.23,0,0.372,133.4005,2.550651,0.02006655,0.41,0,-999,0,13.35,99.3,13.51,13.44,0.2,0,0,13.95,13.24,0.2,102.662,3.405,3.406,3.405,100,0,0,0,355.6,118,118
"2022-10-18 00:28:00",3161952,0.9913334,168.1316,3.555504,0.05976248,1.15,0,0.2993334,140.5304,5.300076,0.02792052,0.34,0,-999,0,13.34,99.3,13.51,13.44,0.2,0,0,13.96,13.23,0.2,102.662,3.404,3.405,3.404,100,0,0,0,355.6,118,118
"2022-10-18 00:29:00",3161953,0.9199999,166.5339,5.003604,0.05215362,1.02,0,0.336,139.4658,2.962694,0.026533,0.38,0,-999,0,13.3,99.3,13.5,13.44,0.2,0,0,13.97,13.25,0.2,102.6684,3.404,3.404,3.404,100,0,0,0,355.6,118,118
"2022-10-18 00:30:00",3161954,0.8333333,160.7999,4.735289,0.08874433,0.98,0,0.484,144.1941,4.256835,0.03996664,0.55,0,-999,0,13.37,99.1,13.51,13.44,0.2,0,0,13.97,13.24,0.2,102.6632,3.404,3.404,3.404,100,0,0,0,355.6,118,118
"2022-10-18 00:31:00",3161955,0.812,169.601,4.301141,0.05140688,0.91,0,0.55,146.4669,1.820721,0.02221111,0.59,0,-999,0,13.4,99.1,13.51,13.48,0.2,0,0,13.97,13.24,0.2,102.6649,3.402,3.404,3.402,100,0,0,0,355.6,118,118
"2022-10-18 00:32:00",3161956,0.914,173.7334,2.48891,0.0658078,1,0,0.568,143.4657,2.390128,0.0216641,0.6,0,-999,0,13.44,99,13.52,13.52,0.2,0,0,13.97,13.25,0.2,102.6665,3.401,3.402,3.401,100,0,0,0,355.6,118,118
"2022-10-18 00:33:00",3161957,0.9999999,172.3355,3.436676,0.07536577,1.15,0,0.594,141.2664,1.388713,0.01624809,0.62,0,-999,0,13.43,99,13.53,13.52,0.2,0,0,13.99,13.23,0.2,102.6691,3.401,3.401,3.4,100,0,0,0,355.6,118,118
"2022-10-18 00:34:00",3161958,1.03,170.737,5.193316,0.06110102,1.16,0,0.5973333,137.9334,1.806361,0.01526071,0.62,0,-999,0,13.45,99.1,13.57,13.53,0.2,0,0,13.99,13.23,0.2,102.6715,3.4,3.401,3.4,100,0,0,0,355.6,118,118
"2022-10-18 00:35:00",3161959,1.039333,163.7355,4.233094,0.07575985,1.17,0,0.5506667,134.6,0.879404,0.01289272,0.58,0,-999,0,13.47,99.1,13.59,13.54,0.2,0,0,13.99,13.23,0.2,102.6711,3.399,3.4,3.399,100,0,0,0,355.6,118,118
"2022-10-18 00:36:00",3161960,0.9593334,162.6642,4.85171,0.06727721,1.08,0,0.588,130.0657,3.021176,0.03525147,0.69,0,-999,0,13.5,99,13.62,13.58,0.2,0,0,13.99,13.24,0.2,102.6679,3.398,3.398,3.396,100,0,0,0,355.6,118,118
"2022-10-18 00:37:00",3161961,0.9573333,164.0053,4.393704,0.06495811,1.08,0,0.5413333,126.0096,6.807774,0.03030218,0.58,0,-999,0,13.5,99.1,13.62,13.58,0.2,0,0,13.99,13.24,0.2,102.6656,3.396,3.398,3.396,100,0,0,0,355.6,118,118
"2022-10-18 00:38:00",3161962,0.9220001,169.8018,4.789714,0.05878775,1.03,0,0.362,108.396,14.04891,0.07422488,0.56,0,-999,0,13.5,99.1,13.59,13.55,0.2,0,0,13.99,13.23,0.2,102.673,3.395,3.396,3.395,100,0,0,0,355.6,118,118
"2022-10-18 00:39:00",3161963,0.8633333,168.2693,4.738465,0.05895384,1.03,0,0.3233333,90.22887,9.439468,0.05996295,0.41,0,-999,0,13.42,98.9,13.53,13.52,0.2,0,0,13.99,13.24,0.2,102.6717,3.395,3.395,3.395,100,0,0,0,355.6,118,118
"2022-10-18 00:40:00",3161964,0.8653333,157.8665,4.160452,0.04558753,0.99,0,0.324,84.23068,10.60099,0.03241399,0.38,0,-999,0,13.4,98.8,13.51,13.47,0.2,0,0,14.01,13.25,0.2,102.6684,3.395,3.395,3.394,100,0,0,0,355.6,118,118
"2022-10-18 00:41:00",3161965,0.816,152.0676,3.837427,0.04046398,0.89,0,0.3586666,84.92715,13.52522,0.05438954,0.49,0,-999,0,13.39,98.6,13.46,13.44,0.2,0,0,14.01,13.23,0.2,102.6684,3.393,3.394,3.393,100,0,0,0,355.6,118,118
"2022-10-18 00:42:00",3161966,0.7553332,152,3.776976,0.04256237,0.86,0,0.3546667,91.07333,6.440866,0.0391351,0.43,0,-999,0,13.3,98.5,13.42,13.4,0.2,0,0,14.01,13.24,0.2,102.6671,3.392,3.393,3.392,100,0,0,0,355.6,118,118
"2022-10-18 00:43:00",3161967,0.7413332,158.1364,5.083086,0.07605845,0.9,0,0.4373333,108.5494,7.704956,0.04040902,0.53,0,-999,0,13.31,98.8,13.47,13.43,0.2,0,0,14.02,13.23,0.2,102.6703,3.391,3.392,3.391,100,0,0,0,355.6,118,118
"2022-10-18 00:44:00",3161968,0.7013333,148.8665,2.362511,0.02654974,0.77,0,0.5013333,110.4657,4.854892,0.05226429,0.6,0,-999,0,13.39,98.9,13.51,13.44,0.2,0,0,14.03,13.25,0.2,102.6712,3.391,3.392,3.391,100,0,0,0,355.6,118,118
"2022-10-18 00:45:00",3161969,0.7366666,153.8595,6.246278,0.04422166,0.82,0,0.4886667,113.5331,4.175956,0.03575223,0.54,0,-999,0,13.4,99,13.51,13.44,0.2,0,0,14.04,13.24,0.2,102.6701,3.391,3.391,3.391,100,0,0,0,355.6,118,118
"2022-10-18 00:46:00",3161970,0.7966667,161.2624,5.204544,0.04742244,0.87,0,0.5313334,114.1334,2.276105,0.02093377,0.57,0,-999,0,13.4,99.1,13.52,13.46,0.2,0,0,14.04,13.23,0.2,102.6728,3.391,3.391,3.391,100,0,0,0,355.6,118,118
"2022-10-18 00:47:00",3161971,0.6993334,157.4675,3.99664,0.04711217,0.77,0,0.5126666,112.4677,4.208054,0.01569146,0.55,0,-999,0,13.4,99.1,13.52,13.49,0.2,0,0,14.04,13.24,0.2,102.675,3.39,3.391,3.39,100,0,0,0,355.6,118,118
"2022-10-18 00:48:00",3161972,0.7886667,161.4665,1.309866,0.03403267,0.84,0,0.498,110.8669,2.156075,0.02879814,0.53,0,-999,0,13.4,99,13.53,13.46,0.2,0,0,14.04,13.23,0.2,102.672,3.389,3.39,3.389,100,0,0,0,355.6,118,118
"2022-10-18 00:49:00",3161973,0.764,157.4665,2.703999,0.02870539,0.83,0,0.5633333,119.5984,3.66457,0.03753516,0.65,0,-999,0,13.46,99.1,13.62,13.56,0.2,0,0,14.04,13.23,0.2,102.6758,3.389,3.389,3.389,100,0,0,0,355.6,118,118
"2022-10-18 00:50:00",3161974,0.7779999,159.0654,3.394838,0.04292629,0.82,0,0.61,125.666,2.699429,0.02780887,0.66,0,-999,0,13.51,99,13.67,13.63,0.2,0,0,14.06,13.23,0.2,102.6771,3.389,3.389,3.388,100,0,0,0,355.6,118,118
"2022-10-18 00:51:00",3161975,0.7546666,162.3318,4.173227,0.05643481,0.87,0,0.5753334,122.4001,1.890421,0.03052139,0.63,0,-999,0,13.6,99.2,13.72,13.68,0.2,0,0,14.06,13.23,0.2,102.6718,3.389,3.389,3.388,100,0,0,0,355.6,118,118
"2022-10-18 00:52:00",3161976,0.7653334,163.665,4.140956,0.02362673,0.81,0,0.5673333,125.1994,2.68808,0.03172101,0.62,0,-999,0,13.6,99.1,13.72,13.69,0.2,0,0,14.07,13.24,0.2,102.6738,3.389,3.389,3.388,100,0,0,0,355.6,118,118
"2022-10-18 00:53:00",3161977,0.8079999,161.599,3.38158,0.02638181,0.86,0,0.66,127,1.966329,0.0609918,0.78,0,-999,0,13.6,99,13.72,13.69,0.2,0,0,14.07,13.23,0.2,102.6729,3.389,3.389,3.389,100,0,0,0,355.6,118,118
"2022-10-18 00:54:00",3161978,0.7946666,153.1998,2.256572,0.02777689,0.86,0,0.7433333,129.5326,2.39021,0.02796823,0.79,0,-999,0,13.61,98.8,13.76,13.73,0.2,0,0,14.09,13.23,0.2,102.6731,3.389,3.389,3.389,100,0,0,0,355.6,118,118
"2022-10-18 00:55:00",3161979,0.802,160.1334,3.556167,0.02587148,0.85,0,0.694,127.8664,1.995444,0.0233238,0.73,0,-999,0,13.69,98.9,13.78,13.75,0.2,0,0,14.09,13.23,0.2,102.6717,3.388,3.389,3.388,100,0,0,0,355.6,118,118
"2022-10-18 00:56:00",3161980,0.7706667,162.7988,2.426855,0.03151013,0.83,0,0.5680001,130.2654,3.275003,0.03815757,0.64,0,-999,0,13.69,99.1,13.8,13.75,0.2,0,0,14.09,13.25,0.2,102.6685,3.389,3.389,3.388,100,0,0,0,355.6,118,118
"2022-10-18 00:57:00",3161981,0.7126666,166.3999,1.959445,0.0480925,0.79,0,0.5373334,128.5988,2.77532,0.03234535,0.6,0,-999,0,13.65,99.3,13.77,13.74,0.2,0,0,14.09,13.25,0.2,102.6658,3.388,3.389,3.388,100,0,0,0,355.6,118,118
"2022-10-18 00:58:00",3161982,0.5933334,168.4657,5.263879,0.02299758,0.63,0,0.482,129.6667,1.954943,0.031241,0.53,0,-999,0,13.67,99.4,13.8,13.75,0.2,0,0,14.09,13.24,0.2,102.6684,3.388,3.389,3.388,100,0,0,0,355.6,118,118
"2022-10-18 00:59:00",3161983,0.6066666,171.8011,2.83257,0.01776388,0.64,0,0.4513333,133.6667,1.988906,0.03159465,0.5,0,-999,0,13.7,99.3,13.82,13.76,0.2,0,0,14.1,13.26,0.2,102.663,3.388,3.388,3.388,100,0,0,0,355.6,118,118
"2022-10-18 01:00:00",3161984,0.5986667,172.7334,1.730632,0.0135974,0.62,0,0.4673333,138.9999,1.673227,0.02999259,0.52,0,-999,0,13.7,99.3,13.83,13.78,0.2,0,0,14.11,13.23,0.2,102.6635,3.387,3.388,3.387,100,0,0,0,355.6,118,118
"2022-10-18 01:01:00",3161985,0.6439999,173.8,1.045626,0.01583246,0.67,0,0.5306666,138.6,0.9520664,0.03991102,0.61,0,-999,0,13.7,99.3,13.85,13.79,0.2,0,0,14.11,13.25,0.2,102.6648,3.387,3.388,3.387,100,0,0,0,355.6,118,118
"2022-10-18 01:02:00",3161986,0.6226667,172.2666,1.61093,0.02644912,0.66,0,0.5873334,140.7331,1.569004,0.008537508,0.6,0,-999,0,13.7,99.2,13.86,13.8,0.2,0,0,14.11,13.24,0.2,102.6648,3.387,3.387,3.387,100,0,0,0,355.6,118,118
"2022-10-18 01:03:00",3161987,0.628,174.4666,2.825156,0.02372059,0.69,0,0.5866667,150.7336,2.791726,0.00699206,0.6,0,-999,0,13.7,99.1,13.88,13.83,0.2,0,0,14.12,13.23,0.2,102.6652,3.387,3.387,3.387,100,0,0,0,355.6,118,118
"2022-10-18 01:04:00",3161988,0.6333333,177.5333,0.805535,0.01349896,0.65,0,0.592,154.3333,1.010697,0.005416044,0.6,0,-999,0,13.76,99,13.88,13.84,0.2,0,0,14.13,13.23,0.2,102.6648,3.385,3.387,3.385,100,0,0,0,355.6,118,118
"2022-10-18 01:05:00",3161989,0.6573333,177.0666,0.8535431,0.03234536,0.71,0,0.6060001,153.9332,1.436044,0.01624808,0.64,0,-999,0,13.74,98.9,13.87,13.82,0.2,0,0,14.13,13.23,0.2,102.6655,3.385,3.386,3.385,100,0,0,0,355.6,118.1,118
"2022-10-18 01:06:00",3161990,0.6986666,175.7999,1.165982,0.02061283,0.74,0,0.6153333,150.6002,4.223547,0.01146975,0.64,0,-999,0,13.71,98.9,13.82,13.81,0.2,0,0,14.13,13.24,0.2,102.6655,3.384,3.385,3.384,100,0,0,0,355.6,118,118
"2022-10-18 01:07:00",3161991,0.6586666,174.2672,2.59373,0.01820867,0.69,0,0.6053334,142.6667,2.054677,0.01783879,0.63,0,-999,0,13.7,99.1,13.81,13.8,0.2,0,0,14.13,13.25,0.2,102.6692,3.384,3.385,3.384,100,0,0,0,355.6,118,118
"2022-10-18 01:08:00",3161992,0.6306667,171.7996,2.314637,0.03434465,0.72,0,0.544,142.7323,2.791797,0.03498571,0.6,0,-999,0,13.7,99.2,13.85,13.81,0.2,0,0,14.15,13.23,0.2,102.6642,3.384,3.385,3.384,100,0,0,0,355.6,118,118
"2022-10-18 01:09:00",3161993,0.552,180.3295,5.299203,0.06284373,0.66,0,0.5013333,141.3331,1.445216,0.01995551,0.54,0,-999,0,13.73,99.3,13.88,13.83,0.2,0,0,14.16,13.22,0.2,102.6716,3.383,3.384,3.383,100,0,0,0,355.6,118,118
"2022-10-18 01:10:00",3161994,0.474,195.5984,5.274715,0.03929377,0.55,0,0.4733333,145.1334,1.087106,0.01135292,0.49,0,-999,0,13.8,99.4,13.94,13.89,0.2,0,0,14.16,13.25,0.2,102.6746,3.384,3.384,3.384,100,0,0,0,355.6,118,118
"2022-10-18 01:11:00",3161995,0.4793333,199.9237,9.571231,0.05495049,0.57,0,0.4439999,149.3335,1.490756,0.02154065,0.48,0,-999,0,13.8,99.3,13.94,13.9,0.2,0,0,14.16,13.23,0.2,102.6797,3.384,3.384,3.383,100,0,0,0,355.6,118,118
"2022-10-18 01:12:00",3161996,0.4706667,206.6625,9.385716,0.06071426,0.55,0,0.338,158.0008,4.675446,0.03270066,0.4,0,-999,0,13.8,99.3,13.93,13.89,0.2,0,0,14.16,13.24,0.2,102.678,3.384,3.385,3.384,100,0,0,0,355.6,118,118
"2022-10-18 01:13:00",3161997,0.5186666,221.5932,7.861073,0.06162971,0.64,0,0.338,152.2664,2.351207,0.01904381,0.37,0,-999,0,13.8,99.2,13.91,13.88,0.2,0,0,14.16,13.24,0.2,102.6823,3.385,3.385,3.384,100,0,0,0,355.6,118,118
"2022-10-18 01:14:00",3161998,0.5673333,227.1358,7.862691,0.07243081,0.7,0,0.3553334,158.3333,1.619415,0.01203698,0.38,0,-999,0,13.8,98.9,13.88,13.83,0.2,0,0,14.16,13.23,0.2,102.6786,3.387,3.387,3.385,100,0,0,0,355.6,118,118
"2022-10-18 01:15:00",3161999,0.6006667,227.8674,7.067817,0.08306356,0.75,0,0.3453333,158.6002,1.818353,0.01024153,0.36,0,-999,0,13.74,98.8,13.88,13.83,0.2,0,0,14.17,13.26,0.2,102.6783,3.387,3.387,3.387,100,0,0,0,355.6,118,118
"2022-10-18 01:16:00",3162000,0.6546667,229.9336,2.593693,0.0523917,0.73,0,0.4086666,164.935,5.446288,0.03283629,0.45,0,-999,0,13.71,98.8,13.87,13.82,0.2,0,0,14.17,13.24,0.2,102.6781,3.388,3.388,3.387,100,0,0,0,355.6,118,118
"2022-10-18 01:17:00",3162001,0.7233334,225.0002,3.966262,0.04671426,0.84,0,0.4686666,173.0668,1.842582,0.01543445,0.49,0,-999,0,13.74,98.7,13.85,13.81,0.2,0,0,14.18,13.24,0.2,102.6788,3.388,3.388,3.388,100,0,0,0,355.6,118,118
"2022-10-18 01:18:00",3162002,0.8193333,228.6011,2.601387,0.09291334,0.96,0,0.4886667,181.3997,3.072208,0.01543445,0.51,0,-999,0,13.79,98.6,13.83,13.79,0.2,0,0,14.17,13.23,0.2,102.6801,3.389,3.389,3.389,100,0,0,0,355.6,118,118
"2022-10-18 01:19:00",3162003,1.004667,232.1331,2.417917,0.06333682,1.12,0,0.5426667,183.8667,1.586006,0.02351359,0.57,0,-999,0,13.8,98.7,13.83,13.79,0.2,0,0,14.17,13.24,0.2,102.6818,3.391,3.391,3.389,100,0,0,0,355.6,118.1,118
"2022-10-18 01:20:00",3162004,1.015333,230.9995,3.054254,0.07172789,1.12,0,0.5666667,187.6001,2.388694,0.01988857,0.6,0,-999,0,13.8,98.7,13.82,13.78,0.2,0,0,14.17,13.25,0.2,102.6838,3.391,3.391,3.391,100,0,0,0,355.6,118,118
"2022-10-18 01:21:00",3162005,0.8853334,235.1302,3.911857,0.03667273,0.95,0,0.5166667,195.2002,3.166219,0.02699795,0.56,0,-999,0,13.79,98.8,13.8,13.75,0.2,0,0,14.16,13.23,0.2,102.6839,3.392,3.392,3.391,100,0,0,0,355.6,118,118
"2022-10-18 01:22:00",3162006,0.8806666,246.9304,4.105014,0.06276588,0.98,0,0.376,206.401,4.285398,0.03826226,0.46,0,-999,0,13.72,99.1,13.81,13.75,0.2,0,0,14.16,13.23,0.2,102.6857,3.393,3.393,3.392,100,0,0,0,355.6,118.1,118
"2022-10-18 01:23:00",3162007,0.8906667,253.1999,1.796034,0.05372358,0.97,0,0.258,212.4653,2.444831,0.03986645,0.32,0,-999,0,13.7,99.1,13.8,13.74,0.2,0,0,14.16,13.23,0.2,102.6855,3.395,3.395,3.393,100,0,0,0,355.6,118,118
"2022-10-18 01:24:00",3162008,0.9486667,259.0665,3.12956,0.03180496,1.01,0,0.13,217.8668,2.334106,0.02097617,0.18,0,-999,0,13.63,98.6,13.72,13.68,0.2,0,0,14.16,13.24,0.2,102.6879,3.398,3.398,3.395,100,0,0,0,355.6,118,118
"2022-10-18 01:25:00",3162009,0.9,262.3995,1.818138,0.03864367,0.98,0,0.1146667,216.4655,3.791965,0.00718022,0.13,0,-999,0,13.51,98.6,13.67,13.6,0.2,0,0,14.16,13.26,0.2,102.683,3.4,3.4,3.398,100,0,0,0,355.6,118,118
"2022-10-18 01:26:00",3162010,0.8500001,260.7333,1.568817,0.01712698,0.89,0,0.142,195.3,12.28243,0.02256841,0.17,0,-999,0,13.5,99,13.66,13.62,0.2,0,0,14.16,13.25,0.2,102.683,3.401,3.401,3.4,100,0,0,0,355.6,118.1,118
"2022-10-18 01:27:00",3162011,0.9079999,256.4675,2.985436,0.02856572,0.99,0,0.2266667,175.1822,7.769613,0.04376706,0.29,0,-999,0,13.5,98.7,13.66,13.63,0.2,0,0,14.14,13.25,0.2,102.6787,3.403,3.403,3.402,100,0,0,0,355.6,118.1,118
"2022-10-18 01:28:00",3162012,0.9413334,248.2668,2.143594,0.02679967,0.99,0,0.4013333,169.6,0.9518608,0.05031456,0.48,0,-999,0,13.5,98.4,13.66,13.6,0.2,0,0,14.13,13.25,0.2,102.6769,3.404,3.404,3.402,100,0,0,0,355.6,118,118
"2022-10-18 01:29:00",3162013,0.8993333,241.1339,2.654627,0.0304339,0.94,0,0.4966666,169.6,0.6103858,0.009428081,0.52,0,-999,0,13.47,97.9,13.61,13.55,0.2,0,0,14.13,13.25,0.2,102.6751,3.405,3.405,3.404,100,0,0,0,355.6,118.1,118
"2022-10-18 01:30:00",3162014,0.9353333,238.3999,1.451096,0.03947431,1.02,0,0.4933333,175.653,6.011108,0.03259175,0.53,0,-999,0,13.42,98.4,13.57,13.5,0.2,0,0,14.13,13.23,0.2,102.6703,3.406,3.406,3.405,100,0,0,0,355.6,118.1,118
"2022-10-18 01:31:00",3162015,0.9653333,242.8662,2.679719,0.02472965,1.04,0,0.444,175.4644,4.063275,0.02184796,0.48,0,-999,0,13.5,99,13.57,13.53,0.2,0,0,14.13,13.24,0.2,102.6737,3.408,3.408,3.406,100,0,0,0,355.6,118.1,118.1
"2022-10-18 01:32:00",3162016,0.9040001,251.463,3.859972,0.05351634,1.04,0,0.3513333,167.8665,3.630217,0.04702717,0.43,0,-999,0,13.5,99.3,13.57,13.54,0.2,0,0,14.12,13.25,0.2,102.6729,3.408,3.409,3.408,100,0,0,0,355.6,118.1,118.1
"2022-10-18 01:33:00",3162017,0.9093332,265.6029,4.392631,0.0811966,1.12,0,0.226,166.9342,3.192555,0.0244404,0.26,0,-999,0,13.5,99.5,13.57,13.53,0.2,0,0,14.11,13.25,0.2,102.6747,3.41,3.41,3.408,100,0,0,0,355.6,118.1,118.1
"2022-10-18 01:34:00",3162018,0.8433334,271.9997,2.449395,0.04742245,0.9,0,0.1466667,155.0003,2.529593,0.02981424,0.19,0,-999,0,13.5,99.6,13.57,13.54,0.2,0,0,14.11,13.25,0.2,102.6817,3.412,3.412,3.41,100,0,0,0,355.6,118.1,118.1
"2022-10-18 01:35:00",3162019,0.8966667,273.6675,2.649603,0.07124294,1,0,0.1266667,157.8013,4.052677,0.01074968,0.14,0,-999,0,13.47,99.4,13.56,13.54,0.2,0,0,14.11,13.25,0.2,102.6799,3.413,3.413,3.412,100,0,0,0,355.6,118.1,118.1
"2022-10-18 01:36:00",3162020,0.8806666,272.1328,2.060959,0.03375731,0.95,0,0.1526667,162.1335,2.124873,0.01123487,0.18,0,-999,0,13.41,99,13.53,13.54,0.2,0,0,14.11,13.25,0.2,102.6844,3.414,3.414,3.413,100,0,0,0,355.6,118.1,118.1
"2022-10-18 01:37:00",3162021,0.866,265.9337,2.669571,0.03702252,0.93,0,0.226,166.533,2.445672,0.02026491,0.24,0,-999,0,13.4,98.7,13.53,13.53,0.2,0,0,14.1,13.26,0.2,102.6853,3.416,3.417,3.414,100,0,0,0,355.6,118.1,118.1
"2022-10-18 01:38:00",3162022,0.7866667,261.2666,2.204942,0.04714044,0.89,0,0.3113333,162.3333,1.350046,0.0372141,0.37,0,-999,0,13.4,98.3,13.51,13.49,0.2,0,0,14.09,13.25,0.2,102.6815,3.417,3.417,3.417,100,0,0,0,355.6,118,118.1
"2022-10-18 01:39:00",3162023,0.6426667,255.4655,3.774454,0.02694851,0.69,0,0.3726667,164.6,2.524359,0.01236482,0.39,0,-999,0,13.35,98.3,13.45,13.43,0.2,0,0,14.09,13.24,0.2,102.6794,3.417,3.418,3.417,100,0,0,0,355.6,118.1,118.1
"2022-10-18 01:40:00",3162024,0.7166666,250.6667,1.920532,0.048808,0.82,0,0.35,170.7332,1.76879,0.01095445,0.37,0,-999,0,13.3,98.2,13.4,13.37,0.2,0,0,14.09,13.25,0.2,102.6825,3.418,3.418,3.418,100,0,0,0,355.6,118.1,118.1
"2022-10-18 01:41:00",3162025,0.798,254.9993,2.943676,0.03798245,0.9,0,0.338,176.3358,3.398246,0.02712932,0.37,0,-999,0,13.25,98.4,13.36,13.33,0.2,0,0,14.09,13.24,0.2,102.6804,3.419,3.419,3.418,100,0,0,0,355.6,118.1,118.1
"2022-10-18 01:42:00",3162026,0.7713334,258.2,1.97304,0.0412903,0.85,0,0.23,190.5926,8.906029,0.02683282,0.28,0,-999,0,13.2,98.4,13.35,13.29,0.2,0,0,14.09,13.23,0.2,102.6756,3.42,3.42,3.419,100,0,0,0,355.6,118.1,118.1
"2022-10-18 01:43:00",3162027,0.7513334,259.4667,1.359654,0.02963481,0.8,0,0.2346667,211.4018,5.793626,0.017075,0.26,0,-999,0,13.2,98.5,13.33,13.28,0.2,0,0,14.08,13.25,0.2,102.6797,3.421,3.421,3.42,100,0,0,0,355.6,118.1,118.1
"2022-10-18 01:44:00",3162028,0.7653333,261.1332,2.629632,0.02552558,0.81,0,0.2506667,221.5347,3.498654,0.01436044,0.28,0,-999,0,13.11,98.4,13.28,13.24,0.2,0,0,14.06,13.24,0.2,102.6794,3.422,3.422,3.421,100,0,0,0,355.6,118.1,118.1
"2022-10-18 01:45:00",3162029,0.924,262.9984,3.244862,0.06760672,1.02,0,0.296,222.7338,2.541879,0.03220766,0.36,0,-999,0,13.1,98.4,13.23,13.17,0.2,0,0,14.06,13.23,0.2,102.6805,3.423,3.423,3.421,100,0,0,0,355.6,118.1,118.1
"2022-10-18 01:46:00",3162030,1.045333,258.2672,2.593655,0.03862066,1.1,0,0.4539999,220.7337,2.931464,0.03322649,0.49,0,-999,0,13.01,98.2,13.14,13.09,0.2,0,0,14.06,13.25,0.2,102.6808,3.424,3.424,3.423,100,0,0,0,355.6,118.1,118.1
"2022-10-18 01:47:00",3162031,0.9913333,254.7334,1.436044,0.02895206,1.04,0,0.4513333,236.8033,6.386755,0.008844336,0.46,0,-999,0,12.93,98.2,13.08,13.06,0.2,0,0,14.06,13.25,0.2,102.681,3.425,3.425,3.424,100,0,0,0,355.6,118.1,118.1